| time (UTC) | temp F | wind direction | speed MPH | gust MPH | rain 1hr in | rain 24hr in | rain mn in | humidity % | barometer mb |
| 20260905182804 | 78 | 179 | 3.0 | 7.0 | 0.00 | 0.00 | 0.00 | 32 | 1029.8 |
| 20260905182306 | 78 | 270 | 2.0 | 8.0 | 0.00 | 0.00 | 0.00 | 32 | 1029.8 |
| 20260905181804 | 78 | 181 | 8.0 | 14.0 | 0.00 | 0.00 | 0.00 | 32 | 1029.8 |
| 20260905180803 | 76 | 284 | 7.0 | 14.0 | 0.00 | 0.00 | 0.00 | 35 | 1029.8 |
| 20260905180304 | 75 | 270 | 6.0 | 9.0 | 0.00 | 0.00 | 0.00 | 35 | 1029.8 |
| 20260905175804 | 76 | 329 | 6.0 | 10.0 | 0.00 | 0.00 | 0.00 | 35 | 1030.0 |
| 20260905175306 | 76 | 345 | 2.0 | 6.0 | 0.00 | 0.00 | 0.00 | 35 | 1030.0 |
| 20260905174804 | 76 | 45 | 6.0 | 12.0 | 0.00 | 0.00 | 0.00 | 35 | 1029.9 |
| 20260905174303 | 76 | 50 | 6.0 | 10.0 | 0.00 | 0.00 | 0.00 | 35 | 1030.1 |
| 20260905173803 | 75 | 17 | 4.0 | 8.0 | 0.00 | 0.00 | 0.00 | 36 | 1030.1 |
| 20260905173303 | 75 | 102 | 3.0 | 7.0 | 0.00 | 0.00 | 0.00 | 36 | 1030.1 |
| 20260905172305 | 74 | 75 | 5.0 | 8.0 | 0.00 | 0.00 | 0.00 | 36 | 1030.1 |
| 20260905171803 | 74 | 152 | 2.0 | 6.0 | 0.00 | 0.00 | 0.00 | 37 | 1030.1 |
| 20260905171304 | 74 | 69 | 7.0 | 10.0 | 0.00 | 0.00 | 0.00 | 37 | 1030.1 |
| 20260905170303 | 73 | 34 | 6.0 | 9.0 | 0.00 | 0.00 | 0.00 | 39 | 1030.1 |
| 20260905165803 | 73 | 89 | 5.0 | 8.0 | 0.00 | 0.00 | 0.00 | 39 | 1030.4 |
| 20260905165306 | 73 | 135 | 6.0 | 8.0 | 0.00 | 0.00 | 0.00 | 38 | 1030.2 |
| 20260905164804 | 73 | 45 | 5.0 | 9.0 | 0.00 | 0.00 | 0.00 | 39 | 1030.4 |
| 20260905164304 | 72 | 354 | 5.0 | 8.0 | 0.00 | 0.00 | 0.00 | 40 | 1030.1 |
| 20260905163803 | 71 | 90 | 3.0 | 7.0 | 0.00 | 0.00 | 0.00 | 40 | 1030.3 |
| 20260905163304 | 71 | 85 | 6.0 | 9.0 | 0.00 | 0.00 | 0.00 | 40 | 1030.2 |
| 20260905162804 | 71 | 69 | 6.0 | 10.0 | 0.00 | 0.00 | 0.00 | 40 | 1030.2 |
| 20260905162306 | 71 | 43 | 6.0 | 9.0 | 0.00 | 0.00 | 0.00 | 41 | 1030.2 |
| 20260905161303 | 70 | 45 | 6.0 | 9.0 | 0.00 | 0.00 | 0.00 | 42 | 1030.2 |
| 20260905160304 | 69 | 45 | 5.0 | 10.0 | 0.00 | 0.00 | 0.00 | 43 | 1030.1 |
| 20260905155306 | 69 | 90 | 5.0 | 7.0 | 0.00 | 0.00 | 0.00 | 44 | 1030.1 |
| 20260905154803 | 69 | 69 | 5.0 | 7.0 | 0.00 | 0.00 | 0.00 | 45 | 1030.1 |
| 20260905154304 | 69 | 82 | 3.0 | 7.0 | 0.00 | 0.00 | 0.00 | 45 | 1030.1 |
| 20260905153303 | 68 | 73 | 3.0 | 7.0 | 0.00 | 0.00 | 0.00 | 45 | 1030.3 |
| 20260905152803 | 68 | 59 | 5.0 | 8.0 | 0.00 | 0.00 | 0.00 | 45 | 1030.3 |
| 20260905152306 | 68 | 90 | 6.0 | 7.0 | 0.00 | 0.00 | 0.00 | 45 | 1030.4 |
| 20260905151803 | 67 | 90 | 3.0 | 6.0 | 0.00 | 0.00 | 0.00 | 45 | 1030.4 |
| 20260905151303 | 67 | 79 | 3.0 | 5.0 | 0.00 | 0.00 | 0.00 | 45 | 1030.4 |
| 20260905150804 | 67 | 315 | 2.0 | 6.0 | 0.00 | 0.00 | 0.00 | 45 | 1030.4 |
| 20260905150304 | 66 | 335 | 2.0 | 6.0 | 0.00 | 0.00 | 0.00 | 46 | 1030.4 |
| 20260905145804 | 66 | 351 | 3.0 | 6.0 | 0.00 | 0.00 | 0.00 | 47 | 1030.4 |
| 20260905144304 | 66 | 315 | 2.0 | 3.0 | 0.00 | 0.00 | 0.00 | 47 | 1030.8 |
| 20260905143304 | 64 | 45 | 0.0 | 0.0 | 0.00 | 0.00 | 0.00 | 49 | 1030.8 |
| 20260905142804 | 64 | 45 | 0.0 | 1.0 | 0.00 | 0.00 | 0.00 | 49 | 1030.8 |
| 20260905142305 | 64 | 45 | 0.0 | 1.0 | 0.00 | 0.00 | 0.00 | 50 | 1030.5 |
| 20260905141304 | 63 | 67 | 2.0 | 6.0 | 0.00 | 0.00 | 0.00 | 51 | 1030.4 |
| 20260905140803 | 62 | 45 | 2.0 | 3.0 | 0.00 | 0.00 | 0.00 | 52 | 1030.4 |
| 20260905140304 | 62 | 31 | 2.0 | 3.0 | 0.00 | 0.00 | 0.00 | 52 | 1030.4 |
| 20260905135804 | 61 | 0 | 2.0 | 5.0 | 0.00 | 0.00 | 0.00 | 53 | 1030.1 |
| 20260905135306 | 61 | 265 | 5.0 | 6.0 | 0.00 | 0.00 | 0.00 | 55 | 1030.1 |
| 20260905134302 | 60 | 270 | 0.0 | 0.0 | 0.00 | 0.00 | 0.00 | 56 | 1030.1 |
| 20260905133802 | 60 | 270 | 0.0 | 2.0 | 0.00 | 0.00 | 0.00 | 55 | 1030.1 |
| 20260905133302 | 60 | 270 | 3.0 | 3.0 | 0.00 | 0.00 | 0.00 | 55 | 1030.1 |
| 20260905132802 | 60 | 270 | 2.0 | 3.0 | 0.00 | 0.00 | 0.00 | 55 | 1030.1 |
| 20260905132305 | 59 | 270 | 2.0 | 3.0 | 0.00 | 0.00 | 0.00 | 55 | 1030.1 |
| 20260905131802 | 59 | 238 | 2.0 | 3.0 | 0.00 | 0.00 | 0.00 | 56 | 1030.1 |
| 20260905130802 | 60 | 315 | 3.0 | 5.0 | 0.00 | 0.00 | 0.00 | 55 | 1029.9 |
| 20260905125803 | 60 | 270 | 3.0 | 5.0 | 0.00 | 0.00 | 0.00 | 55 | 1029.8 |
| 20260905125305 | 59 | 270 | 5.0 | 6.0 | 0.00 | 0.00 | 0.00 | 55 | 1029.8 |
| 20260905124303 | 59 | 270 | 5.0 | 6.0 | 0.00 | 0.00 | 0.00 | 54 | 1029.5 |
| 20260905123803 | 59 | 270 | 3.0 | 5.0 | 0.00 | 0.00 | 0.00 | 54 | 1029.8 |
| 20260905123302 | 59 | 270 | 3.0 | 5.0 | 0.00 | 0.00 | 0.00 | 54 | 1029.4 |
| 20260905122802 | 60 | 270 | 3.0 | 6.0 | 0.00 | 0.00 | 0.00 | 53 | 1029.4 |
| 20260905122306 | 60 | 270 | 5.0 | 6.0 | 0.00 | 0.00 | 0.00 | 52 | 1029.4 |
| 20260905121802 | 61 | 270 | 5.0 | 6.0 | 0.00 | 0.00 | 0.00 | 51 | 1029.4 |
| 20260905120303 | 59 | 265 | 6.0 | 9.0 | 0.00 | 0.00 | 0.00 | 54 | 1029.4 |
| 20260905115802 | 59 | 266 | 5.0 | 7.0 | 0.00 | 0.00 | 0.00 | 54 | 1029.4 |
| 20260905115306 | 60 | 270 | 6.0 | 7.0 | 0.00 | 0.00 | 0.00 | 53 | 1029.4 |
| 20260905114802 | 60 | 270 | 6.0 | 7.0 | 0.00 | 0.00 | 0.00 | 53 | 1029.4 |
| 20260905114302 | 60 | 270 | 6.0 | 7.0 | 0.00 | 0.00 | 0.00 | 53 | 1029.4 |
| 20260905113802 | 60 | 270 | 6.0 | 6.0 | 0.00 | 0.00 | 0.00 | 53 | 1029.4 |
| 20260905113303 | 59 | 292 | 5.0 | 7.0 | 0.00 | 0.00 | 0.00 | 53 | 1029.4 |
| 20260905112803 | 59 | 299 | 3.0 | 5.0 | 0.00 | 0.00 | 0.00 | 53 | 1029.4 |
| 20260905112305 | 60 | 352 | 3.0 | 6.0 | 0.00 | 0.00 | 0.00 | 52 | 1029.7 |
| 20260905111802 | 60 | 225 | 6.0 | 8.0 | 0.00 | 0.00 | 0.00 | 51 | 1029.4 |
| 20260905111303 | 61 | 270 | 2.0 | 3.0 | 0.00 | 0.00 | 0.00 | 50 | 1029.4 |
| 20260905110802 | 60 | 271 | 3.0 | 6.0 | 0.00 | 0.00 | 0.00 | 50 | 1029.4 |
| 20260905110303 | 61 | 202 | 3.0 | 9.0 | 0.00 | 0.00 | 0.00 | 49 | 1029.4 |
| 20260905105803 | 62 | 48 | 6.0 | 10.0 | 0.00 | 0.00 | 0.00 | 47 | 1029.4 |
| 20260905105305 | 62 | 270 | 0.0 | 5.0 | 0.00 | 0.00 | 0.00 | 47 | 1029.4 |
| 20260905104802 | 61 | 225 | 6.0 | 8.0 | 0.00 | 0.00 | 0.00 | 47 | 1029.2 |
| 20260905104302 | 61 | 249 | 7.0 | 9.0 | 0.00 | 0.00 | 0.00 | 49 | 1029.1 |
| 20260905103802 | 60 | 270 | 5.0 | 9.0 | 0.00 | 0.00 | 0.00 | 51 | 1029.1 |
| 20260905103302 | 59 | 247 | 7.0 | 8.0 | 0.00 | 0.00 | 0.00 | 51 | 1029.3 |
| 20260905102803 | 60 | 270 | 7.0 | 8.0 | 0.00 | 0.00 | 0.00 | 50 | 1029.4 |
| 20260905102305 | 61 | 225 | 3.0 | 6.0 | 0.00 | 0.00 | 0.00 | 49 | 1029.3 |
| 20260905101802 | 61 | 270 | 0.0 | 1.0 | 0.00 | 0.00 | 0.00 | 48 | 1029.1 |
| 20260905101302 | 62 | 0 | 1.0 | 3.0 | 0.00 | 0.00 | 0.00 | 47 | 1029.1 |
| 20260905100802 | 63 | 228 | 3.0 | 5.0 | 0.00 | 0.00 | 0.00 | 46 | 1029.4 |
| 20260905095803 | 63 | 225 | 7.0 | 9.0 | 0.00 | 0.00 | 0.00 | 47 | 1029.1 |
| 20260905095305 | 64 | 270 | 2.0 | 6.0 | 0.00 | 0.00 | 0.00 | 46 | 1029.1 |
| 20260905094802 | 64 | 315 | 5.0 | 9.0 | 0.00 | 0.00 | 0.00 | 45 | 1029.1 |
| 20260905094302 | 65 | 288 | 9.0 | 13.0 | 0.00 | 0.00 | 0.00 | 44 | 1029.1 |
| 20260905093802 | 65 | 281 | 9.0 | 12.0 | 0.00 | 0.00 | 0.00 | 44 | 1029.1 |
| 20260905093303 | 66 | 270 | 9.0 | 13.0 | 0.00 | 0.00 | 0.00 | 43 | 1029.1 |
| 20260905092305 | 66 | 271 | 13.0 | 17.0 | 0.00 | 0.00 | 0.00 | 44 | 1029.1 |
| 20260905091802 | 65 | 270 | 13.0 | 20.0 | 0.00 | 0.00 | 0.00 | 45 | 1029.1 |
| 20260905091302 | 63 | 244 | 9.0 | 14.0 | 0.00 | 0.00 | 0.00 | 46 | 1029.1 |
| 20260905090803 | 63 | 225 | 9.0 | 12.0 | 0.00 | 0.00 | 0.00 | 48 | 1029.1 |
| 20260905090302 | 63 | 270 | 9.0 | 10.0 | 0.00 | 0.00 | 0.00 | 47 | 1029.1 |
| 20260905085802 | 63 | 232 | 6.0 | 9.0 | 0.00 | 0.00 | 0.00 | 46 | 1029.2 |
| 20260905085305 | 63 | 225 | 6.0 | 8.0 | 0.00 | 0.00 | 0.00 | 45 | 1029.1 |
| 20260905084802 | 61 | 226 | 6.0 | 9.0 | 0.00 | 0.00 | 0.00 | 48 | 1029.1 |
| 20260905084303 | 59 | 225 | 8.0 | 9.0 | 0.00 | 0.00 | 0.00 | 50 | 1029.3 |
| 20260905083802 | 59 | 236 | 6.0 | 9.0 | 0.00 | 0.00 | 0.00 | 50 | 1029.2 |
| 20260905083302 | 60 | 225 | 6.0 | 8.0 | 0.00 | 0.00 | 0.00 | 49 | 1029.4 |
| 20260905082306 | 60 | 272 | 9.0 | 9.0 | 0.00 | 0.00 | 0.00 | 48 | 1029.1 |
| 20260905081803 | 59 | 249 | 6.0 | 10.0 | 0.00 | 0.00 | 0.00 | 50 | 1029.4 |
| 20260905081303 | 59 | 225 | 9.0 | 10.0 | 0.00 | 0.00 | 0.00 | 49 | 1029.4 |
| 20260905080303 | 60 | 225 | 5.0 | 8.0 | 0.00 | 0.00 | 0.00 | 49 | 1029.3 |
| 20260905075803 | 60 | 225 | 7.0 | 8.0 | 0.00 | 0.00 | 0.00 | 49 | 1029.2 |
| 20260905075305 | 60 | 225 | 7.0 | 10.0 | 0.00 | 0.00 | 0.00 | 49 | 1029.3 |
| 20260905074802 | 60 | 225 | 7.0 | 9.0 | 0.00 | 0.00 | 0.00 | 50 | 1029.3 |
| 20260905074302 | 60 | 225 | 7.0 | 7.0 | 0.00 | 0.00 | 0.00 | 49 | 1029.1 |
| 20260905073803 | 61 | 206 | 2.0 | 7.0 | 0.00 | 0.00 | 0.00 | 48 | 1029.3 |
| 20260905072802 | 62 | 247 | 7.0 | 10.0 | 0.00 | 0.00 | 0.00 | 48 | 1029.1 |
| 20260905071802 | 62 | 248 | 9.0 | 12.0 | 0.00 | 0.00 | 0.00 | 46 | 1029.1 |
| 20260905071302 | 63 | 245 | 9.0 | 13.0 | 0.00 | 0.00 | 0.00 | 46 | 1029.1 |
| 20260905070803 | 63 | 235 | 9.0 | 12.0 | 0.00 | 0.00 | 0.00 | 46 | 1029.3 |
| 20260905070303 | 62 | 225 | 10.0 | 15.0 | 0.00 | 0.00 | 0.00 | 47 | 1029.1 |
| 20260905065803 | 62 | 225 | 10.0 | 14.0 | 0.00 | 0.00 | 0.00 | 46 | 1029.1 |
| 20260905064803 | 63 | 247 | 9.0 | 12.0 | 0.00 | 0.00 | 0.00 | 46 | 1029.1 |
| 20260905064302 | 62 | 228 | 10.0 | 13.0 | 0.00 | 0.00 | 0.00 | 46 | 1029.1 |
| 20260905063802 | 62 | 225 | 10.0 | 13.0 | 0.00 | 0.00 | 0.00 | 46 | 1029.1 |
| 20260905063302 | 63 | 235 | 10.0 | 12.0 | 0.00 | 0.00 | 0.00 | 46 | 1029.1 |
| 20260905062802 | 63 | 225 | 9.0 | 12.0 | 0.00 | 0.00 | 0.00 | 46 | 1029.1 |
| 20260905062305 | 62 | 225 | 10.0 | 13.0 | 0.00 | 0.00 | 0.00 | 48 | 1029.1 |
| 20260905061802 | 62 | 225 | 11.0 | 14.0 | 0.00 | 0.00 | 0.00 | 48 | 1029.1 |
| 20260905061303 | 62 | 225 | 10.0 | 14.0 | 0.00 | 0.00 | 0.00 | 47 | 1029.1 |
| 20260905060857 | 61 | 225 | 10.0 | 13.0 | 0.00 | 0.00 | 0.00 | 49 | 1029.1 |
| 20260905055803 | 61 | 225 | 7.0 | 10.0 | 0.00 | 0.00 | 0.00 | 50 | 1029.1 |
| 20260905055306 | 61 | 225 | 8.0 | 9.0 | 0.00 | 0.00 | 0.00 | 50 | 1029.1 |
| 20260905054303 | 61 | 177 | 3.0 | 6.0 | 0.00 | 0.00 | 0.00 | 51 | 1029.1 |
| 20260905053803 | 61 | 151 | 6.0 | 8.0 | 0.00 | 0.00 | 0.00 | 51 | 1029.1 |
| 20260905053302 | 62 | 180 | 6.0 | 8.0 | 0.00 | 0.00 | 0.00 | 50 | 1029.1 |
| 20260905052802 | 62 | 225 | 8.0 | 10.0 | 0.00 | 0.00 | 0.00 | 50 | 1029.1 |
| 20260905052306 | 62 | 249 | 9.0 | 13.0 | 0.00 | 0.00 | 0.00 | 50 | 1029.1 |
| 20260905051803 | 63 | 238 | 10.0 | 12.0 | 0.00 | 0.00 | 0.00 | 50 | 1029.1 |
| 20260905051302 | 63 | 225 | 9.0 | 12.0 | 0.00 | 0.00 | 0.00 | 50 | 1029.1 |
| 20260905050802 | 63 | 225 | 9.0 | 12.0 | 0.00 | 0.00 | 0.00 | 50 | 1029.1 |
| 20260905050303 | 63 | 225 | 8.0 | 10.0 | 0.00 | 0.00 | 0.00 | 51 | 1029.1 |
| 20260905045803 | 62 | 225 | 7.0 | 9.0 | 0.00 | 0.00 | 0.00 | 52 | 1029.1 |
| 20260905044303 | 61 | 237 | 8.0 | 9.0 | 0.00 | 0.00 | 0.00 | 54 | 1029.1 |
| 20260905043803 | 61 | 225 | 8.0 | 8.0 | 0.00 | 0.00 | 0.00 | 53 | 1029.1 |
| 20260905042803 | 61 | 225 | 7.0 | 8.0 | 0.00 | 0.00 | 0.00 | 52 | 1029.1 |
| 20260905042306 | 61 | 225 | 8.0 | 10.0 | 0.00 | 0.00 | 0.00 | 53 | 1029.1 |
| 20260905041802 | 60 | 225 | 9.0 | 12.0 | 0.00 | 0.00 | 0.00 | 53 | 1029.1 |
| 20260905041302 | 61 | 225 | 8.0 | 12.0 | 0.00 | 0.00 | 0.00 | 52 | 1029.1 |
| 20260905040802 | 61 | 225 | 9.0 | 10.0 | 0.00 | 0.00 | 0.00 | 51 | 1029.4 |
| 20260905040302 | 61 | 245 | 5.0 | 8.0 | 0.00 | 0.00 | 0.00 | 49 | 1029.2 |
| 20260905035306 | 61 | 225 | 7.0 | 10.0 | 0.00 | 0.00 | 0.00 | 49 | 1029.4 |
| 20260905034802 | 62 | 225 | 7.0 | 9.0 | 0.00 | 0.00 | 0.00 | 48 | 1029.4 |
| 20260905034303 | 63 | 225 | 7.0 | 10.0 | 0.00 | 0.00 | 0.00 | 46 | 1029.3 |
| 20260905033303 | 62 | 225 | 7.0 | 9.0 | 0.00 | 0.00 | 0.00 | 48 | 1029.1 |
| 20260905032802 | 61 | 225 | 8.0 | 10.0 | 0.00 | 0.00 | 0.00 | 50 | 1029.1 |
| 20260905032306 | 61 | 225 | 6.0 | 8.0 | 0.00 | 0.00 | 0.00 | 51 | 1029.1 |
| 20260905031803 | 62 | 225 | 6.0 | 7.0 | 0.00 | 0.00 | 0.00 | 51 | 1029.1 |
| 20260905031302 | 62 | 202 | 5.0 | 9.0 | 0.00 | 0.00 | 0.00 | 51 | 1029.1 |
| 20260905030302 | 63 | 135 | 5.0 | 8.0 | 0.00 | 0.00 | 0.00 | 49 | 1029.1 |
| 20260905025802 | 63 | 135 | 3.0 | 7.0 | 0.00 | 0.00 | 0.00 | 48 | 1029.1 |
| 20260905025306 | 63 | 129 | 3.0 | 6.0 | 0.00 | 0.00 | 0.00 | 47 | 1029.1 |
| 20260905024803 | 64 | 191 | 5.0 | 6.0 | 0.00 | 0.00 | 0.00 | 47 | 1028.9 |
| 20260905023803 | 63 | 133 | 7.0 | 10.0 | 0.00 | 0.00 | 0.00 | 47 | 1028.7 |
| 20260905023303 | 63 | 138 | 3.0 | 9.0 | 0.00 | 0.00 | 0.00 | 46 | 1028.7 |
| 20260905022804 | 64 | 90 | 0.0 | 0.0 | 0.00 | 0.00 | 0.00 | 45 | 1028.6 |
| 20260905022305 | 65 | 90 | 0.0 | 3.0 | 0.00 | 0.00 | 0.00 | 44 | 1028.6 |
| 20260905021802 | 66 | 225 | 5.0 | 7.0 | 0.00 | 0.00 | 0.00 | 44 | 1028.4 |
| 20260905021303 | 67 | 224 | 1.0 | 3.0 | 0.00 | 0.00 | 0.00 | 44 | 1028.4 |
| 20260905020803 | 67 | 180 | 5.0 | 7.0 | 0.00 | 0.00 | 0.00 | 43 | 1028.4 |
| 20260905020303 | 68 | 196 | 4.0 | 7.0 | 0.00 | 0.00 | 0.00 | 43 | 1028.4 |
| 20260905015306 | 68 | 180 | 8.0 | 12.0 | 0.00 | 0.00 | 0.00 | 42 | 1028.4 |
| 20260905014803 | 68 | 180 | 8.0 | 15.0 | 0.00 | 0.00 | 0.00 | 42 | 1028.4 |
| 20260905014302 | 68 | 152 | 14.0 | 18.0 | 0.00 | 0.00 | 0.00 | 44 | 1028.4 |
| 20260905013803 | 68 | 140 | 10.0 | 17.0 | 0.00 | 0.00 | 0.00 | 44 | 1028.4 |
| 20260905013304 | 68 | 114 | 7.0 | 10.0 | 0.00 | 0.00 | 0.00 | 43 | 1028.4 |
| 20260905012803 | 68 | 113 | 6.0 | 10.0 | 0.00 | 0.00 | 0.00 | 42 | 1028.4 |
| 20260905012306 | 68 | 180 | 5.0 | 7.0 | 0.00 | 0.00 | 0.00 | 42 | 1028.4 |
| 20260905011803 | 68 | 225 | 6.0 | 7.0 | 0.00 | 0.00 | 0.00 | 42 | 1028.2 |
| 20260905005803 | 70 | 247 | 6.0 | 8.0 | 0.00 | 0.00 | 0.00 | 38 | 1028.1 |
| 20260905005306 | 71 | 247 | 6.0 | 7.0 | 0.00 | 0.00 | 0.00 | 37 | 1028.1 |
| 20260905004803 | 72 | 247 | 4.0 | 6.0 | 0.00 | 0.00 | 0.00 | 35 | 1027.9 |
| 20260905004304 | 73 | 247 | 5.0 | 5.0 | 0.00 | 0.00 | 0.00 | 34 | 1028.1 |
| 20260905003803 | 73 | 270 | 5.0 | 8.0 | 0.00 | 0.00 | 0.00 | 33 | 1028.1 |
| 20260905003303 | 74 | 270 | 6.0 | 10.0 | 0.00 | 0.00 | 0.00 | 33 | 1027.9 |
| 20260905002803 | 74 | 270 | 6.0 | 8.0 | 0.00 | 0.00 | 0.00 | 33 | 1027.9 |
| 20260905002305 | 74 | 270 | 7.0 | 10.0 | 0.00 | 0.00 | 0.00 | 33 | 1027.9 |
| 20260905001803 | 73 | 264 | 6.0 | 8.0 | 0.00 | 0.00 | 0.00 | 33 | 1028.1 |
| 20260905001303 | 74 | 304 | 4.0 | 8.0 | 0.00 | 0.00 | 0.00 | 33 | 1028.1 |
| 20260905000804 | 75 | 280 | 8.0 | 13.0 | 0.00 | 0.00 | 0.00 | 33 | 1028.1 |
| 20260905000303 | 76 | 157 | 2.0 | 5.0 | 0.00 | 0.00 | 0.00 | 32 | 1027.9 |
| 20260904235306 | 77 | 157 | 4.0 | 8.0 | 0.00 | 0.00 | 0.00 | 32 | 1027.7 |
| 20260904234803 | 77 | 245 | 3.0 | 5.0 | 0.00 | 0.00 | 0.00 | 32 | 1027.7 |
| 20260904233803 | 76 | 45 | 2.0 | 5.0 | 0.00 | 0.00 | 0.00 | 32 | 1027.7 |
| 20260904233303 | 75 | 292 | 6.0 | 10.0 | 0.00 | 0.00 | 0.00 | 32 | 1027.7 |
| 20260904232803 | 75 | 273 | 6.0 | 9.0 | 0.00 | 0.00 | 0.00 | 32 | 1027.7 |
| 20260904231803 | 75 | 234 | 7.0 | 10.0 | 0.00 | 0.00 | 0.00 | 32 | 1027.7 |
| 20260904225803 | 76 | 315 | 4.0 | 7.0 | 0.00 | 0.00 | 0.00 | 31 | 1027.9 |
| 20260904225305 | 76 | 334 | 1.0 | 3.0 | 0.00 | 0.00 | 0.00 | 31 | 1027.9 |
| 20260904224803 | 76 | 56 | 2.0 | 10.0 | 0.00 | 0.00 | 0.00 | 31 | 1027.7 |
| 20260904224303 | 77 | 277 | 6.0 | 9.0 | 0.00 | 0.00 | 0.00 | 31 | 1027.7 |
| 20260904223803 | 76 | 243 | 1.0 | 6.0 | 0.00 | 0.00 | 0.00 | 32 | 1027.7 |
| 20260904223303 | 75 | 90 | 2.0 | 6.0 | 0.00 | 0.00 | 0.00 | 32 | 1027.7 |
| 20260904222306 | 75 | 315 | 7.0 | 12.0 | 0.00 | 0.00 | 0.00 | 32 | 1028.1 |
| 20260904221802 | 76 | 343 | 5.0 | 10.0 | 0.00 | 0.00 | 0.00 | 32 | 1027.9 |
| 20260904221303 | 77 | 330 | 6.0 | 12.0 | 0.00 | 0.00 | 0.00 | 31 | 1028.1 |
| 20260904220803 | 78 | 358 | 6.0 | 14.0 | 0.00 | 0.00 | 0.00 | 30 | 1027.9 |
| 20260904220302 | 78 | 137 | 5.0 | 9.0 | 0.00 | 0.00 | 0.00 | 30 | 1027.9 |
| 20260904215803 | 78 | 84 | 3.0 | 9.0 | 0.00 | 0.00 | 0.00 | 31 | 1028.1 |
| 20260904215305 | 77 | 205 | 5.0 | 8.0 | 0.00 | 0.00 | 0.00 | 32 | 1028.2 |
| 20260904214804 | 76 | 169 | 5.0 | 8.0 | 0.00 | 0.00 | 0.00 | 32 | 1028.3 |
| 20260904214302 | 76 | 75 | 6.0 | 9.0 | 0.00 | 0.00 | 0.00 | 32 | 1028.1 |
| 20260904213803 | 76 | 209 | 6.0 | 13.0 | 0.00 | 0.00 | 0.00 | 33 | 1028.4 |
| 20260904212306 | 75 | 195 | 5.0 | 9.0 | 0.00 | 0.00 | 0.00 | 33 | 1028.4 |
| 20260904211803 | 75 | 116 | 1.0 | 8.0 | 0.00 | 0.00 | 0.00 | 33 | 1028.4 |
| 20260904211303 | 76 | 80 | 2.0 | 8.0 | 0.00 | 0.00 | 0.00 | 32 | 1028.4 |
| 20260904210303 | 76 | 144 | 10.0 | 15.0 | 0.00 | 0.00 | 0.00 | 32 | 1028.4 |
| 20260904205305 | 75 | 187 | 5.0 | 9.0 | 0.00 | 0.00 | 0.00 | 32 | 1028.6 |
| 20260904204803 | 74 | 180 | 7.0 | 12.0 | 0.00 | 0.00 | 0.00 | 33 | 1028.6 |
| 20260904203803 | 73 | 228 | 9.0 | 16.0 | 0.00 | 0.00 | 0.00 | 35 | 1028.4 |
| 20260904203304 | 73 | 220 | 7.0 | 13.0 | 0.00 | 0.00 | 0.00 | 35 | 1028.6 |
| 20260904202803 | 74 | 270 | 11.0 | 18.0 | 0.00 | 0.00 | 0.00 | 35 | 1028.7 |
| 20260904202306 | 75 | 269 | 14.0 | 21.0 | 0.00 | 0.00 | 0.00 | 34 | 1028.7 |
| 20260904201803 | 74 | 180 | 7.0 | 14.0 | 0.00 | 0.00 | 0.00 | 34 | 1028.7 |
| 20260904201303 | 74 | 256 | 7.0 | 18.0 | 0.00 | 0.00 | 0.00 | 34 | 1028.6 |
| 20260904200303 | 75 | 317 | 9.0 | 16.0 | 0.00 | 0.00 | 0.00 | 33 | 1028.7 |
| 20260904195803 | 76 | 272 | 7.0 | 23.0 | 0.00 | 0.00 | 0.00 | 32 | 1028.7 |
| 20260904195305 | 76 | 319 | 9.0 | 14.0 | 0.00 | 0.00 | 0.00 | 32 | 1028.9 |
| 20260904194803 | 76 | 183 | 9.0 | 14.0 | 0.00 | 0.00 | 0.00 | 32 | 1028.9 |
| 20260904194303 | 75 | 184 | 7.0 | 18.0 | 0.00 | 0.00 | 0.00 | 33 | 1028.9 |
| 20260904193303 | 76 | 236 | 14.0 | 25.0 | 0.00 | 0.00 | 0.00 | 32 | 1028.7 |
| 20260904192802 | 75 | 135 | 4.0 | 12.0 | 0.00 | 0.00 | 0.00 | 33 | 1028.9 |
| 20260904192306 | 75 | 240 | 12.0 | 18.0 | 0.00 | 0.00 | 0.00 | 33 | 1029.1 |
| 20260904191802 | 76 | 271 | 12.0 | 21.0 | 0.00 | 0.00 | 0.00 | 33 | 1028.9 |
| 20260904191303 | 76 | 199 | 5.0 | 13.0 | 0.00 | 0.00 | 0.00 | 33 | 1029.1 |
| 20260904190803 | 76 | 194 | 5.0 | 10.0 | 0.00 | 0.00 | 0.00 | 33 | 1029.1 |
| 20260904190303 | 76 | 331 | 7.0 | 14.0 | 0.00 | 0.00 | 0.00 | 33 | 1029.1 |
| 20260904185804 | 75 | 184 | 6.0 | 13.0 | 0.00 | 0.00 | 0.00 | 34 | 1029.1 |
| 20260904185306 | 74 | 172 | 7.0 | 13.0 | 0.00 | 0.00 | 0.00 | 35 | 1029.1 |
| 20260904184803 | 74 | 325 | 10.0 | 20.0 | 0.00 | 0.00 | 0.00 | 35 | 1029.1 |
| 20260904184303 | 74 | 299 | 9.0 | 12.0 | 0.00 | 0.00 | 0.00 | 35 | 1029.1 |